This demonstration page uses our WeatherBlox Daily Observations layout. Learn more.

Left ArrowRight Arrow

39.01783, -85.05884

Hourly Observations for March 28, 2020

Temp ( °F °C ) Dew Point ( °F °C ) Humidity (%) Winds ( mph kmh ) Pressure ( in mb ) Visibility ( mi km ) Precip ( " mm )
12:52 am 00:52 Cloudy 61 16.1 57 13.9 87 87 ENE 12 19 29.72 1006 8 13 0.01 0.25
1:52 am 01:52 Cloudy 61 16.1 57 13.9 87 87 E 5 7 29.77 1008 8 13 0.00 0.00
2:52 am 02:52 Cloudy 61 16.1 57 13.9 87 87 Calm 29.78 1009 8 13 0.00 0.00
3:52 am 03:52 Cloudy with Mist and Fog 59 15 56 13.3 90 90 ESE 3 6 29.75 1007 6 10 0.00 0.00
4:52 am 04:52 Cloudy 58 14.4 56 13.3 93 93 SSE 6 9 29.73 1007 8 13 0.00 0.00
5:52 am 05:52 Mostly Cloudy 64 17.8 60 15.6 87 87 SSW 9 15 29.73 1007 7 11 0.00 0.00
6:52 am 06:52 Mostly Clear 66 18.9 61 16.1 84 84 SSW 10 17 29.73 1007 9 14 0.00 0.00
7:52 am 07:52 Cloudy 68 20 61 16.1 78 78 SSW 14 22 29.74 1007 8 13 0.00 0.00
8:52 am 08:52 Mostly Cloudy 70 21.1 62 16.7 76 76 SSW 16 26 29.73 1007 9 14 0.00 0.00
9:52 am 09:52 Mostly Cloudy 71 21.7 62 16.7 73 73 SSW 15 24 29.73 1007 9 14 0.00 0.00
10:52 am 10:52 Mostly Cloudy 74 23.3 63 17.2 69 69 SSW 15 24 29.75 1007 9 14 0.00 0.00
11:52 am 11:52 Mostly Cloudy 77 25 64 17.8 64 64 SW 15 24 29.75 1007 10 16 0.00 0.00
12:52 pm 12:52 Cloudy 77 25 63 17.2 62 62 SW 15 24 29.75 1008 10 16 0.00 0.00
1:52 pm 13:52 Cloudy with Nearby Thunderstorms 78 25.6 64 17.8 62 62 SW 10 17 29.75 1007 10 16 0.00 0.00
2:10 pm 14:10 Cloudy 78 25.6 64 17.8 62 62 SW 10 17 29.73 1007 10 16 0.00 0.00
2:52 pm 14:52 Cloudy 79 26.1 63 17.2 58 58 SW 12 19 29.73 1007 10 16 0.00 0.00
3:52 pm 15:52 Cloudy 80 26.7 62 16.7 54 54 SW 15 24 29.73 1007 10 16 0.00 0.00
4:52 pm 16:52 Cloudy 78 25.6 63 17.2 60 60 SSW 16 26 29.73 1007 10 16 0.00 0.00
5:52 pm 17:52 Cloudy 77 25 63 17.2 62 62 S 15 24 29.74 1007 10 16 0.00 0.00
6:52 pm 18:52 Cloudy 76 24.4 62 16.7 62 62 S 16 26 29.73 1007 10 16 0.00 0.00
7:52 pm 19:52 Cloudy 75 23.9 61 16.1 62 62 SSW 9 15 29.74 1007 10 16 0.00 0.00
8:52 pm 20:52 Cloudy 72 22.2 60 15.6 66 66 S 9 15 29.71 1006 10 16 0.00 0.00
9:52 pm 21:52 Cloudy 71 21.7 60 15.6 68 68 S 6 9 29.72 1006 10 16 0.00 0.00
10:52 pm 22:52 Cloudy 73 22.8 60 15.6 64 64 S 13 20 29.73 1007 10 16 0.00 0.00
11:24 pm 23:24 Cloudy with Thunderstorms 72 22.2 61 16.1 68 68 SW 12 19 29.75 1007 10 16 0.00 0.00
11:52 pm 23:52 Cloudy with Thunderstorms 69 20.6 62 16.7 78 78 SW 10 17 29.78 1009 3 5 0.06 1.52

Powered by AerisWeather